time,date,cmcg,arpg,gasp2,gefs01,gefs02,gefs03,gefs04,gefs05,gefs06,gefs07,gefs08,gefs09,gefs10,gfswrf3,hrrr,jmag2,ngps,ukmo,wrf4acm2,wrf4drag,wrf4p3,wrfv75,mean,WRFRT
0,2020-05-12_00:00:00,11.09700,7.40574,8.55435,3.76045,4.19218,3.93028,4.06360,3.64657,3.54253,4.33730,3.34837,3.67291,3.66950,8.48502,8.53421,4.65943,9.77102,10.13957,8.53421,8.48502,8.48502,8.48502,6.32410,8.48502
1,2020-05-12_01:00:00,9.50126,8.50148,9.58176,6.81582,7.20796,7.26678,7.23008,6.63935,6.15339,8.05024,6.91589,6.65115,6.93874,13.88546,6.82154,7.46290,6.46021,8.84674,6.26372,8.95050,8.42613,9.08392,7.83828,8.94587
2,2020-05-12_02:00:00,9.71201,9.33705,9.40137,8.58082,8.58202,8.78221,8.08861,8.04187,7.05061,8.61605,8.33057,7.42879,8.43843,12.25103,4.90418,8.98186,6.80262,9.15095,4.64302,7.73310,7.31901,7.89093,8.02064,7.76124
3,2020-05-12_03:00:00,9.39224,9.81900,8.83559,5.47254,6.79330,5.69969,5.93943,6.31725,5.78022,7.80473,6.06448,5.35069,7.09321,12.87123,4.73723,7.74591,7.99078,5.75582,4.76630,6.76882,6.78116,6.83099,6.87902,6.84637
4,2020-05-12_04:00:00,10.13748,8.75760,9.93422,3.84941,5.85320,6.21265,3.17882,2.89013,4.58014,7.20886,5.80944,3.14246,6.98239,12.93481,5.37497,6.62892,8.79091,9.58547,4.67292,7.89723,8.12973,8.69958,6.77787,7.98978
5,2020-05-12_05:00:00,7.12898,7.68596,8.75726,4.67872,5.12004,6.10913,3.77110,2.94567,3.74288,8.36087,7.01663,3.80705,7.56682,10.78930,5.61560,5.96066,6.02861,9.44377,4.56024,6.93325,7.32748,7.29190,5.92434,6.93414
6,2020-05-12_06:00:00,3.67328,4.87701,6.32831,6.43994,6.79872,5.14256,5.16594,3.32120,3.40794,6.03793,8.19512,5.66747,5.68099,6.20335,2.99259,6.50623,4.86091,6.07562,2.89339,4.54366,2.26562,4.51316,4.83624,4.55045
7,2020-05-12_07:00:00,5.33010,1.73582,2.47835,2.17562,4.39847,4.05429,3.60767,2.50306,2.19367,3.56143,5.91283,4.43329,3.39288,5.20978,3.44530,5.19641,2.11419,4.41285,3.64940,3.59646,3.19356,4.16366,3.00556,3.87572
8,2020-05-12_08:00:00,4.46251,5.04963,2.13970,3.04034,3.76138,4.64450,3.03384,4.10385,2.41874,4.85249,3.32852,2.64600,4.73702,5.62091,4.37404,4.42398,4.27932,1.54320,4.80575,1.34110,3.25922,1.88943,2.42961,1.65519
9,2020-05-12_09:00:00,2.68464,3.68000,4.04264,4.20517,3.22321,4.37700,3.57656,5.40127,3.95114,2.57192,3.86133,3.28807,3.74833,4.03482,4.16989,3.55299,3.12713,0.90187,2.67469,1.38366,3.04781,1.09610,2.18670,1.39510
10,2020-05-12_10:00:00,3.28383,4.18979,3.74397,3.32028,3.19042,2.91036,3.26322,3.24828,5.01294,3.50190,3.97767,2.80991,2.33017,3.59527,4.11111,2.69686,4.81305,4.03701,4.40836,2.14405,2.20200,2.94885,2.54975,2.20502
11,2020-05-12_11:00:00,4.99613,3.41296,4.64098,3.06261,3.13252,3.68208,3.75825,4.55793,3.59840,2.14223,1.79688,3.68079,2.97011,3.37853,4.92486,3.12002,2.64979,4.29287,4.23247,2.31363,2.61178,2.64594,2.71343,2.54721
12,2020-05-12_12:00:00,3.17846,3.04131,4.08043,1.87653,2.43260,1.58636,2.27247,4.60619,3.44476,2.43650,2.19816,1.96668,3.19391,4.01853,6.63820,3.04016,3.42401,3.05101,4.51223,1.95998,2.03099,1.27961,1.93990,2.09070
13,2020-05-12_13:00:00,0.42217,3.18349,3.43349,0.78902,1.81371,1.82266,2.90298,2.00150,1.79747,2.22779,2.54406,0.79301,0.98646,2.46057,4.79534,2.78662,2.13142,1.33886,3.85505,1.57298,1.13781,2.43072,0.44546,1.78996
14,2020-05-12_14:00:00,1.13415,0.72955,3.16429,1.70336,2.16336,2.29129,3.50068,3.07267,3.39213,2.13101,4.12896,1.99953,3.29834,3.77437,3.49826,3.65169,0.95720,3.52642,3.01200,1.96150,0.86267,1.66320,0.87122,1.07796
15,2020-05-12_15:00:00,4.67914,3.43218,0.93152,3.11155,2.80865,2.37987,4.31159,3.06492,2.81187,1.95758,5.39686,3.13346,3.82833,3.12906,2.62046,2.95925,1.75152,5.85951,3.19176,1.27521,1.62306,2.31846,1.84951,1.77775
16,2020-05-12_16:00:00,3.71476,3.69265,1.95286,2.73241,2.80509,1.80502,2.68716,3.07964,2.55304,4.53761,5.04458,3.93974,2.99675,3.09767,4.70246,2.27160,2.22264,4.70797,2.18121,3.60577,3.35304,1.84162,1.83873,3.71855
17,2020-05-12_17:00:00,4.24697,1.14410,4.84274,3.52293,1.62477,2.87030,0.99299,2.70488,2.60328,4.17349,1.67456,3.31356,2.10329,3.98276,4.36961,4.14448,3.02686,3.45221,2.47004,3.96986,4.32871,4.19144,2.14864,3.63542
18,2020-05-12_18:00:00,6.61395,6.85802,5.43252,1.69426,2.49190,1.47652,3.30719,3.65071,3.53031,4.40405,2.72624,3.05099,1.23114,4.88573,3.58667,5.86077,4.39588,2.99811,6.06732,4.16021,4.53275,4.93094,3.52950,3.86180
19,2020-05-12_19:00:00,11.24124,7.59511,9.00949,4.25712,3.96393,3.36529,3.69602,4.00829,6.29785,5.72440,1.00099,2.36831,2.51292,5.33557,3.03237,8.73509,4.10335,1.14116,5.83764,4.05485,4.78897,5.40587,4.27414,3.83910
20,2020-05-12_20:00:00,12.59984,4.64691,9.40876,3.14378,6.51248,8.09734,6.23822,8.09335,9.76691,8.17396,4.20191,7.12465,5.14411,6.17102,3.09567,10.97383,9.11652,4.77215,6.54769,6.55364,5.49218,7.69561,6.61261,6.49446
21,2020-05-12_21:00:00,11.29979,6.03765,10.21308,4.46882,4.96376,3.78799,8.46142,6.87117,8.25504,9.89322,4.25715,4.69052,5.75618,10.51338,1.87152,10.90668,8.64995,5.78369,3.90912,5.83552,8.71351,9.95104,6.75315,7.02757
22,2020-05-12_22:00:00,8.76368,7.19175,9.39187,5.07726,7.71642,3.92102,5.46734,6.99683,10.76895,12.20399,6.41801,2.20977,5.55118,8.63505,0.46106,12.04606,11.07799,4.80672,10.42827,6.20281,8.47254,8.42506,6.70086,7.54336
23,2020-05-12_23:00:00,8.95675,7.95916,8.97351,12.17828,11.42398,10.29381,15.48697,12.90762,7.96254,8.63097,5.54541,9.10041,11.70411,5.34323,6.09953,11.43509,9.53317,10.13092,1.02347,5.48909,6.55132,9.21789,8.16505,6.12593
24,2020-05-13_00:00:00,9.10252,9.55950,13.05331,7.09021,5.30954,7.98665,8.56285,7.69578,6.76259,10.11805,11.30512,7.64348,7.35080,8.94391,2.96827,10.64302,10.35968,11.69533,4.94161,10.90137,15.50524,14.52136,8.79510,15.92934
25,2020-05-13_01:00:00,9.42771,10.78919,8.58158,6.44862,4.32492,9.59336,5.95007,9.44360,14.74257,8.59857,7.46962,4.98213,7.83877,12.87178,9.88189,9.02545,6.38892,7.99195,8.31023,9.06167,9.82733,10.14757,8.36216,7.75718
26,2020-05-13_02:00:00,6.31594,12.77932,10.09888,6.17226,6.65339,7.23839,5.15282,8.38322,8.21549,6.63782,8.49118,2.94929,6.69399,10.69048,11.20718,8.82044,10.12534,8.48040,9.23970,8.55348,7.94329,7.75175,7.83499,8.26873
27,2020-05-13_03:00:00,5.17610,7.55377,7.49890,8.05882,3.69376,4.55807,5.82048,4.86904,7.55582,5.50708,4.04281,4.77209,3.24628,13.02539,7.56491,8.54610,6.97979,7.01883,7.49906,6.44422,8.08914,7.25149,6.26689,5.89595
28,2020-05-13_04:00:00,7.81525,12.31350,7.55421,4.48662,3.66104,5.11238,6.77551,7.85634,5.04681,5.28739,4.48544,6.03362,6.22353,15.13218,7.94310,9.46852,5.38026,4.12822,5.46967,11.32752,6.67726,8.60474,6.86253,7.94204
29,2020-05-13_05:00:00,9.87032,9.55129,7.66692,3.96382,7.17477,6.04926,5.62691,7.11232,6.70196,6.16351,3.08581,7.45685,5.90801,11.33648,11.24817,8.08839,6.97726,5.99145,5.61796,6.79778,7.27744,9.29783,6.99282,7.40266
30,2020-05-13_06:00:00,10.28084,7.30838,5.80410,5.50058,5.57793,4.71747,5.78755,6.56260,5.98535,5.07966,4.31281,5.43392,4.15179,13.24300,10.32481,6.94387,5.33569,6.16140,5.64680,6.76827,6.19395,8.73062,6.61324,7.81731
31,2020-05-13_07:00:00,7.89338,6.09921,7.21399,6.06787,7.12254,4.73612,5.45484,5.08060,7.37348,7.08769,4.82186,6.41734,4.84926,15.27900,8.07982,7.19214,4.87474,7.16598,7.37703,8.86890,9.66397,9.11508,7.17099,10.41423
32,2020-05-13_08:00:00,5.66455,4.43685,6.80206,5.62118,6.20701,5.33432,6.88998,6.09611,7.41130,6.22481,6.52118,7.99421,4.72853,12.29827,10.02642,7.02165,5.27057,5.70879,8.83317,7.63281,6.60011,7.74893,6.85013,8.37492
33,2020-05-13_09:00:00,5.22925,4.97074,7.69567,5.59454,4.89975,3.90039,6.02992,6.25283,7.22380,6.29390,5.71470,7.26019,5.77818,13.15003,9.85188,7.85390,6.25318,6.02492,9.99891,6.69094,8.98621,6.80648,6.94469,8.65778
34,2020-05-13_10:00:00,4.57798,5.78935,6.79873,5.08422,6.11471,5.44575,5.92059,5.02647,6.91519,6.97098,6.14373,7.29908,6.24634,15.04156,11.23792,7.46220,6.23852,6.30124,8.89267,6.23116,7.98525,8.78745,7.11444,8.54198
35,2020-05-13_11:00:00,6.16685,6.57385,9.54200,6.05869,6.21950,4.45351,6.47802,5.95201,6.63220,6.71998,6.11334,6.54034,6.06620,15.02903,11.88597,7.43404,8.05240,7.70438,9.76345,8.55685,6.30307,6.99796,7.51896,9.04646
36,2020-05-13_12:00:00,7.02751,4.94921,7.87601,6.26078,7.57163,4.87983,6.77173,5.66224,7.20047,5.94663,6.42384,7.43839,5.03161,16.71194,11.99559,7.17577,8.09139,8.05695,9.58254,8.87209,7.67886,8.64714,7.70614,8.97376
37,2020-05-13_13:00:00,8.42505,6.83150,7.95426,6.93710,5.38612,5.42694,6.87207,5.42422,6.45667,5.40845,7.39594,7.42254,6.90389,15.49482,11.96387,7.96608,8.39617,8.00395,10.59571,8.46241,8.25862,8.87992,7.90087,8.28151
38,2020-05-13_14:00:00,8.26494,8.87573,9.39389,6.37362,4.40304,7.59454,8.02756,7.40921,8.02586,7.37567,7.09427,6.74580,10.03813,16.55044,10.90896,8.08315,9.22532,8.20776,9.77480,8.24017,8.92358,8.41662,8.49388,8.34250
39,2020-05-13_15:00:00,8.29012,9.61464,8.92236,8.39078,8.55647,6.09418,10.07417,4.57357,8.74290,7.76198,7.32122,8.35260,6.64049,16.62092,10.94448,8.83115,10.30055,8.59006,9.26062,8.64996,9.17566,7.86176,8.72920,8.47530
40,2020-05-13_16:00:00,8.64140,8.14066,7.71767,9.45533,6.73586,7.10917,9.82585,7.17258,8.40487,9.05229,11.56477,10.13127,8.24134,16.02717,10.74800,8.55961,10.21273,7.94449,8.02576,8.49175,9.36188,9.10473,9.07695,9.13976
41,2020-05-13_17:00:00,7.49720,6.56533,8.14546,8.62396,6.78534,6.56293,9.18232,9.10372,7.07116,7.17241,10.88105,9.04295,8.01060,14.93076,9.78838,8.38012,8.35366,7.21548,7.74138,6.94062,8.42614,9.09492,8.37431,8.34099
42,2020-05-13_18:00:00,6.62618,6.82565,7.72658,8.99309,7.61742,6.14352,8.48360,8.56679,6.32607,6.85582,10.64694,8.58616,6.69265,10.96895,8.94371,8.63007,8.08019,6.20335,7.95587,6.27887,6.99139,9.02749,7.76460,8.08841
43,2020-05-13_19:00:00,5.50609,6.96805,7.92587,6.86006,7.32510,5.06614,7.93800,6.77073,6.66036,5.97184,10.65190,8.11578,5.61913,8.08729,9.90421,8.80872,7.42039,6.08729,8.96536,6.40828,5.93117,8.45846,7.21306,6.80682
44,2020-05-13_20:00:00,5.94953,6.56492,9.38613,5.44839,6.16946,4.43005,8.37247,6.86744,5.76403,4.95218,9.56286,8.42748,6.31093,8.60710,9.44847,7.53304,10.75176,6.64114,8.25736,7.73539,5.42963,6.29008,7.02583,6.27087
45,2020-05-13_21:00:00,5.20111,5.65258,4.98440,6.44620,6.19652,6.47655,12.45836,8.47683,6.63022,7.51960,10.19100,7.51541,4.72318,10.17466,5.80324,8.23040,6.84395,9.97699,7.83486,4.60209,5.80446,6.18296,6.70397,5.73777
46,2020-05-13_22:00:00,5.49860,5.82230,4.97603,5.61373,6.79860,4.50064,4.16933,6.48070,5.36450,6.68882,8.77020,7.44317,6.52830,7.13272,6.07376,12.50074,8.13602,4.82831,7.87501,5.98824,4.82587,5.57139,6.34081,5.77330
47,2020-05-13_23:00:00,6.20524,7.11687,6.76563,6.17614,6.13391,4.38519,4.91522,8.47838,5.01446,5.15744,6.42018,7.55975,7.40483,8.43277,7.99171,7.50245,5.75181,3.25398,8.04854,6.23041,8.76547,7.06710,6.34850,8.61505
48,2020-05-14_00:00:00,5.83671,6.62232,8.02175,11.10096,6.53319,8.56431,5.69478,10.01539,7.81549,5.93123,5.47570,9.27298,7.00600,13.90661,10.04619,6.65849,4.27754,5.95126,13.09065,8.67103,9.76824,5.69299,7.58614,8.48189
49,2020-05-14_01:00:00,4.38858,6.63089,6.98631,6.08239,7.76521,9.73959,6.30480,7.87032,5.06260,12.29625,5.80413,4.37931,6.56719,8.79141,11.02351,6.57543,10.05526,8.82296,11.66128,5.24662,6.32751,8.38395,6.89096,5.94003
50,2020-05-14_02:00:00,3.39588,6.10080,10.17621,7.65421,7.48584,7.70078,11.82037,2.45537,5.65813,4.44856,3.68949,4.90585,4.71880,10.32365,8.70746,7.45404,7.78402,5.70686,9.25489,9.10095,3.46219,2.50145,6.14548,6.40075
51,2020-05-14_03:00:00,2.61374,4.85035,5.84970,3.15395,6.76313,5.43596,3.30803,3.37141,2.69097,2.86681,4.72771,3.37993,3.07203,8.68579,4.91438,6.69331,3.35722,4.37253,4.42176,3.70060,7.55756,2.60876,3.97473,4.20640
52,2020-05-14_04:00:00,2.51717,3.63003,5.36066,2.59309,5.08333,6.66300,3.57943,4.99956,3.08100,4.32461,2.33930,4.40805,3.31932,9.61613,5.29796,4.84545,2.69025,5.01709,4.26545,2.25512,5.90954,3.48679,3.24286,3.93231
53,2020-05-14_05:00:00,2.57506,0.38433,4.61262,2.46942,4.40898,5.60660,3.75279,2.98969,6.73529,3.78559,2.63843,6.46340,3.46863,9.69983,2.75755,3.20809,2.60950,4.60671,2.99940,2.59200,6.84802,4.88788,3.29172,4.82174
54,2020-05-14_06:00:00,2.03061,2.68508,3.77511,2.77812,5.28529,4.05256,2.70089,5.85083,2.07866,3.72755,2.15302,5.12246,3.12491,10.17195,3.59030,3.47245,5.26922,4.93948,1.49420,6.77450,6.91528,3.85739,3.49324,4.72926
55,2020-05-14_07:00:00,1.25372,2.01318,3.01875,2.59833,5.45858,3.26206,2.40602,2.85558,2.92098,3.52922,3.24695,4.65605,3.61925,9.37462,3.35582,4.82424,6.66135,3.84780,2.11960,4.76230,6.29515,3.33827,3.28516,4.01178
56,2020-05-14_08:00:00,7.61298,1.67827,1.84095,2.85861,5.74695,3.45092,1.80162,3.61377,3.44945,3.80075,4.05342,3.81076,3.32847,7.63549,2.65981,4.36006,3.78626,3.13232,3.49502,3.32507,6.67367,3.73846,3.46131,3.44458
57,2020-05-14_09:00:00,7.10674,2.46986,1.43251,3.54825,5.87229,3.23236,2.05478,2.90947,3.38824,6.10403,3.12672,2.51723,4.30226,6.95444,3.99244,3.71171,1.87926,2.40366,3.85982,3.08580,4.50329,3.53735,3.21832,2.62465
58,2020-05-14_10:00:00,5.13525,5.78386,0.49950,5.02041,5.23760,2.57554,3.03585,2.14271,2.87248,5.81814,2.93125,1.91795,2.73286,7.20973,3.48180,2.96912,1.85669,2.19963,3.77455,2.86005,3.65401,4.72073,2.95575,4.17844
59,2020-05-14_11:00:00,4.31797,7.82371,1.15559,4.55277,3.23065,2.71770,3.98158,2.08257,2.56922,5.38502,1.71251,2.46381,2.24171,6.77387,3.29593,2.84768,1.52848,1.76934,2.70975,2.22415,4.02801,4.51840,2.60897,4.10654
60,2020-05-14_12:00:00,7.48100,6.75051,1.20970,4.29045,3.23653,4.01169,2.24883,2.66489,2.57884,4.87482,0.95692,2.23513,2.97527,5.21722,3.74922,1.99846,1.90888,1.84412,2.36316,1.82580,2.33486,2.72399,2.50293,3.94954
61,2020-05-14_13:00:00,4.26767,8.31876,1.43269,4.04099,3.71192,6.95177,1.53158,3.00987,2.69870,4.06519,0.72141,1.80384,3.58730,3.88782,3.49985,2.87445,2.20352,1.96017,2.30195,1.91558,2.51113,3.75294,2.59332,3.27193
62,2020-05-14_14:00:00,5.37539,10.14144,2.22623,3.60200,4.14335,6.23101,2.84928,3.11677,2.65246,3.46657,1.06961,2.37709,3.96002,4.85961,3.17669,4.64672,1.81395,4.10892,2.04017,2.69284,2.15211,3.60677,3.01999,3.64607
63,2020-05-14_15:00:00,6.61693,8.27392,2.98681,3.60591,3.07468,5.41884,1.77588,2.11973,2.76596,2.83595,1.23095,2.48053,3.75703,4.63992,2.41398,4.81911,2.30686,5.70859,2.31728,3.20790,2.77761,3.49335,3.02905,4.02587
64,2020-05-14_16:00:00,6.61808,7.72849,3.00805,3.67603,1.76124,3.94115,0.70636,1.97798,2.37800,2.86900,1.27882,2.04432,2.93744,5.28560,2.30686,3.86320,3.18209,5.44001,2.94526,3.95514,3.11908,3.14158,2.97505,3.85130
65,2020-05-14_17:00:00,7.00044,7.14012,2.24870,2.42766,4.54147,2.86176,0.79186,1.08558,1.94994,2.93581,2.29948,3.19498,2.00210,6.04267,1.56448,4.41695,2.16707,5.31852,2.53233,4.92263,3.84911,1.80671,3.04216,3.96672
66,2020-05-14_18:00:00,6.88604,6.48022,3.70512,5.10967,5.00157,4.64208,2.01519,1.60050,4.11868,4.51748,3.58567,3.75534,4.67910,7.47080,1.85036,5.03870,2.69893,5.54843,2.22991,3.58821,3.76314,1.05226,3.48523,3.98461
67,2020-05-14_19:00:00,7.26273,7.22039,4.10303,4.22118,6.82364,5.40066,2.64896,2.67522,4.76760,5.38630,3.81238,4.37264,5.11125,7.00884,0.76944,6.11496,4.03943,5.63273,2.21710,4.52227,3.90721,1.61165,4.23103,5.25819
68,2020-05-14_20:00:00,6.41841,6.91174,5.05450,5.04290,5.59586,5.53801,4.03218,5.02004,5.23108,4.71898,5.48900,6.08982,6.21976,6.07665,0.96676,5.15503,4.45458,5.24230,2.72172,5.05455,3.09482,5.11439,4.80016,5.33838
69,2020-05-14_21:00:00,7.21306,2.74570,5.55705,4.94884,6.21493,6.07807,4.94760,4.45650,5.16318,5.73772,5.94899,5.74748,8.90974,5.61971,1.75837,5.03388,4.88119,5.10357,4.06054,4.90108,4.55076,5.45210,5.06837,4.67750
70,2020-05-14_22:00:00,6.31652,1.31118,6.85840,5.10335,6.60767,7.71220,6.12536,4.41471,4.72854,5.26798,5.51654,6.29257,7.35227,5.02031,2.60644,5.32805,3.77227,5.54429,5.17186,4.77006,5.40495,5.35779,5.06525,5.21478
71,2020-05-14_23:00:00,5.89543,7.10056,6.05175,4.94053,5.29022,6.92285,7.31677,4.69499,5.06392,4.60852,4.91289,12.87383,7.51751,4.63694,3.79454,5.82952,4.92250,5.30273,4.73992,4.75423,4.71839,7.46966,5.62361,4.99735
72,2020-05-15_00:00:00,4.64617,2.88190,4.19767,6.24369,5.54338,7.86335,6.39147,5.01685,5.13782,4.52112,4.54422,6.96679,6.68474,3.72726,5.26852,5.08944,5.21280,8.05315,4.23501,4.68382,4.40294,4.18799,4.74654,5.32141
